Home > Weather > Incheon > Past weeks

Flag for South Korea Past Weather in Incheon, South Korea — Yesterday and Last 2 Weeks

Now
75 °F

Fog.


Feels Like: 75 °F
Forecast: 75 / 85 °F
Wind: 7 mph from Southeast

Location: Incheon International Airport

Current Time: Jul 26, 2016 at 1:00:09 AM

Latest Report: Jul 26, 2016 at 12:30 AM


Visibility: 2 mi

Pressure: 29.80 "Hg

Humidity: 89%

Dew Point: 72 °F

Location of IncheonLocation

Past Weather in Incheon — Graph

°F

Incheon Temperature Yesterday

Maximum temperature yesterday: 84 °F (at 2:30 PM)
Minimum temperature yesterday: 77 °F (at 2:00 AM)
Average temperature yesterday: 80 °F

High & Low Weather Summary for the Past Weeks

 TemperatureHumidityPressure
High90 °F (Jul 22, 2:00 PM)94% (Jul 13, 6:30 AM)29.89 "Hg (Jul 13, 6:30 AM)
Low68 °F (Jul 16, 4:30 AM)40% (Jul 12, 1:30 PM)29.45 "Hg (Jul 16, 6:30 AM)
Average77 °F73%29.72 "Hg
* Reported Jul 10 11:00 PM — Jul 25 11:30 PM, Incheon, Weather by CustomWeather, © 2016

Note: Actual official high and low records may vary slightly from our data, if they occured in-between our weather recording intervals... More about our weather records

Advertising

Incheon Weather History for the Previous 24 Hours

Scroll right to see more
 ConditionsComfort  
Time TempWeatherWind HumidityBarometerVisibility
11:30 PM
Mon, Jul 25
77 °FFog.8 mph83%29.80 "Hg2 mi
11:00 PM77 °FFog.6 mph89%29.80 "Hg2 mi
10:30 PM77 °FFog.8 mph89%29.83 "Hg2 mi
10:00 PM77 °FFog.7 mph89%29.83 "Hg3 mi
9:30 PM79 °FPassing clouds.7 mph79%29.83 "Hg4 mi
9:00 PM79 °FPassing clouds.6 mph84%29.83 "Hg4 mi
8:30 PM79 °FPassing clouds.7 mph84%29.80 "Hg4 mi
8:00 PM77 °FScattered clouds.8 mph89%29.80 "Hg4 mi
7:30 PM79 °FScattered clouds.9 mph84%29.80 "Hg4 mi
7:00 PM79 °FScattered clouds.8 mph84%29.80 "HgN/A
6:30 PM81 °FScattered clouds.8 mph79%29.80 "HgN/A
6:00 PM81 °FScattered clouds.7 mph79%29.80 "HgN/A
5:30 PM82 °FScattered clouds.9 mph74%29.83 "HgN/A
5:00 PM81 °FScattered clouds.10 mph79%29.83 "HgN/A
4:30 PM82 °FScattered clouds.12 mph74%29.83 "HgN/A
4:00 PM82 °FScattered clouds.9 mph74%29.83 "HgN/A
3:30 PM84 °FScattered clouds.13 mph70%29.83 "HgN/A
3:00 PM84 °FScattered clouds.12 mph70%29.83 "HgN/A
2:30 PM84 °FScattered clouds.9 mph70%29.83 "HgN/A
2:00 PM82 °FBroken clouds.8 mph74%29.83 "Hg6 mi
1:30 PM82 °FBroken clouds.10 mph74%29.86 "Hg4 mi
1:00 PM82 °FBroken clouds.10 mph74%29.86 "Hg4 mi
12:30 PM82 °FPartly sunny.10 mph79%29.86 "Hg4 mi
12:00 PM82 °FBroken clouds.10 mph79%29.89 "Hg4 mi
11:30 AM82 °FFog.10 mph79%29.89 "Hg3 mi
11:00 AM81 °FFog.9 mph79%29.89 "Hg3 mi
10:30 AM81 °FFog.8 mph79%29.89 "Hg3 mi
10:00 AM79 °FFog.8 mph84%29.86 "Hg3 mi
9:30 AM79 °FBroken clouds.9 mph84%29.86 "Hg4 mi
9:00 AM81 °FBroken clouds.9 mph79%29.86 "Hg4 mi
8:30 AM81 °FFog.8 mph79%29.86 "Hg3 mi
8:00 AM79 °FFog.7 mph84%29.86 "Hg3 mi
7:30 AM79 °FFog.7 mph84%29.86 "Hg3 mi
7:00 AM79 °FFog.7 mph84%29.86 "Hg2 mi
6:30 AM77 °FFog.7 mph89%29.83 "Hg2 mi
6:00 AM77 °FFog.7 mph89%29.83 "Hg2 mi
5:30 AM77 °FFog.7 mph89%29.83 "Hg2 mi
5:00 AM77 °FFog.7 mph89%29.83 "Hg2 mi
4:30 AM77 °FFog.7 mph89%29.83 "Hg2 mi
4:00 AM77 °FFog.6 mph89%29.83 "Hg2 mi
3:30 AM77 °FWarm.5 mph89%29.83 "Hg2 mi
3:00 AM77 °FFog.6 mph89%29.83 "Hg2 mi
2:30 AM79 °FFog.5 mph84%29.83 "Hg3 mi
2:00 AM77 °FPassing clouds.6 mph89%29.83 "Hg4 mi
1:30 AM79 °FPassing clouds.7 mph84%29.86 "Hg4 mi
1:00 AM79 °FPartly cloudy.5 mph84%29.86 "Hg4 mi
Weather by CustomWeather, © 2016

See weather overviewHow to use our weather pages